Location: Palomar Mountain Lodge
(33.3110°N, 116.8495°W)
Time: 21:06:00
(UTC-07:00)

ARGOS - Pass Details

Date: 19 May 2017
Orbit: 821 x 834 km, 98.6° (Epoch: 16 October)

Event Time Altitude Azimuth Distance (km) Brightness Sun altitude
Exits shadow 22:10:34 65° 179° (S) 904 3.1 -25.3°
Maximum altitude 22:11:22 84° 257° (WSW) 836 3.1 -25.4°
Drops below altitude 10° 22:16:48 10° 346° (NNW) 2,441 6.4 -26.2°
Sets 22:19:10 0° 347° (NNW) 3,380 7.3 -26.5°
